Location: Yucca Valley
(34.1140°N, 116.4310°W)
Time: 19:59:09
(UTC-07:00)

Daily predictions for brighter satellites

Satellite Brightness Start Highest point End
(mag) Time Altitude Azimuth Time Altitude Azimuth Time Altitude Azimuth
NOSS 3-2 (A) 4.4 20:09:07 10° NW 20:16:45 69° WSW 20:24:48 10° SSE
CENTAUR R/B 3.9 20:15:39 10° NNW 20:22:49 36° NE 20:30:19 10° ESE
In-Cosmos 22 Rocket 4.3 20:18:19 10° S 20:24:04 65° E 20:29:49 10° NNE
NOSS 2-2 (D) 4.0 20:24:45 10° S 20:28:27 35° ESE 20:32:26 10° NE
Cosmos 2184 Rocket 4.5 20:24:00 10° SSE 20:29:36 38° E 20:35:13 10° NNE
Cosmos 2221 Rocket 3.7 20:26:22 10° N 20:30:50 83° W 20:35:15 10° S
USA 186 1.5 20:27:59 10° SSE 20:30:53 81° E 20:34:01 10° N
Cosmos 1892 3.5 20:28:58 10° SSE 20:32:23 32° E 20:35:50 10° NNE
H-2A R/B 2.7 20:29:16 10° SSE 20:32:58 90° WNW 20:36:41 10° NNW
Cosmos 1624 Rocket 4.4 20:30:50 10° S 20:35:42 41° ESE 20:40:38 10° NNE
Envisat 4.0 20:34:09 10° SE 20:38:28 29° ENE 20:42:47 10° NNE
Cosmos 1733 Rocket 3.8 20:34:41 10° SSE 20:38:40 33° E 20:42:37 10° NNE
Meteor 2-10 Rocket 4.3 20:35:14 10° N 20:40:42 41° ENE 20:45:56 10° SSE
NOSS 2-2 (C) 3.5 20:39:08 10° SSW 20:43:03 54° ESE 20:47:21 10° NE
Cosmos 2181 Rocket 4.1 20:38:55 10° N 20:45:24 88° W 20:51:46 10° S
CZ-3C R/B 3.9 20:04:31 10° WSW 20:48:51 34° S 20:55:54 15° SE
H-2A R/B 0.1 20:49:22 10° W 20:51:40 40° S 20:52:06 30° SE
NOSS 8 (A) 4.5 20:53:22 10° SSW 20:56:59 86° WNW 21:00:34 10° NNE
SPOT 5 3.8 20:58:36 18° SE 21:01:54 35° ENE 21:06:42 10° N
NOSS 2-2 (E) 3.6 20:58:09 10° SSW 21:02:14 80° WNW 21:06:49 10° NNE
Cosmos 1356 Rocket 3.4 20:59:55 10° S 21:04:05 88° W 21:08:22 10° N
H-2A R/B 2.4 21:01:14 19° SE 21:04:09 48° ENE 21:08:17 10° N
SJ-11-01 4.3 21:00:16 11° SSE 21:04:53 86° ENE 21:09:40 10° NNW
Cosmos 2074 Rocket 4.0 20:58:42 10° S 21:04:59 84° E 21:11:17 10° N
ERS-1 Rocket 2.9 21:02:06 11° SSE 21:06:58 87° ENE 21:12:02 10° NNW
GPS 2-05 Rocket1 3.9 21:05:00 10° SSW 21:08:05 26° SSE 21:08:18 26° SSE
IUS-26 SRM-1 4.1 21:08:15 10° SSW 21:08:31 11° SSW 21:08:31 11° SSW
Nimbus 7 Rocket 4.4 21:03:42 10° NNE 21:09:36 66° ESE 21:15:32 10° S
COSMOS 2406 3.6 21:04:09 10° N 21:09:42 48° ENE 21:13:05 22° SE
Cosmos 1862 4.5 21:09:05 23° ESE 21:09:49 25° E 21:13:09 10° NE
ALOS 4.1 21:07:28 10° SSW 21:11:30 29° W 21:15:33 10° NW
Cosmos 1610 Rocket 4.4 21:07:22 10° S 21:13:25 65° E 21:19:32 10° NNE
Meteor 1-10 Rocket 4.3 21:09:58 10° N 21:15:46 64° E 21:19:42 20° SSE
EO 1 Delta rocket 4.2 21:13:43 10° NNE 21:20:00 70° E 21:24:35 13° S
Abrixas rocket 2.2 21:18:26 10° NW 21:21:51 76° NE 21:22:48 44° ESE
ARGOS 4.3 21:20:05 22° E 21:22:00 27° ENE 21:26:24 10° NNE
Sich 1 Rocket 3.6 21:20:04 19° S 21:23:17 64° E 21:27:50 10° NNE
Nadezhda 3 Rocket 4.5 21:17:29 10° N 21:23:29 43° E 21:26:30 26° SE
ATLAS 5 CENTAUR R/B 2.6 21:19:01 10° NNW 21:25:02 59° ENE 21:28:29 28° SE
Cosmos 2278 Rocket 2.8 21:25:14 27° SE 21:27:17 35° ESE 21:32:23 10° NE
Cosmos 1825 2.8 21:29:25 35° E 21:29:25 35° E 21:32:53 10° NNE
Cosmos 1844 3.7 21:24:00 10° S 21:29:36 60° ESE 21:35:18 10° NNE
CZ-3A R/B 3.8 21:16:59 10° W 21:33:01 35° SSW 21:35:12 26° SSE
CZ-4B R/B 3.7 21:28:45 10° NNE 21:33:29 44° E 21:34:50 35° SE
Cosmos 2341 Rocket 4.2 21:31:20 25° SSE 21:34:56 53° E 21:41:00 10° NNE
Cosmos 1939 Rocket 3.5 21:33:27 22° SSW 21:35:43 51° W 21:39:30 10° NNW
Cosmos 1674 Rocket 3.5 21:32:43 10° N 21:37:12 89° W 21:39:08 34° S
Cosmos 2056 Rocket 4.3 21:33:05 10° SSW 21:38:07 52° WNW 21:43:08 10° N
USA 234 3.2 21:33:17 10° NE 21:39:43 59° SE 21:46:06 10° SSW
Cosmos 1844 Rocket 2.8 21:34:57 10° SSW 21:40:36 79° WNW 21:46:16 10° NNE
Cosmos 1782 2.9 21:38:53 10° N 21:42:54 75° W 21:44:17 39° S
Cosmos 1782 Rocket 3.8 21:44:31 47° ESE 21:44:52 48° E 21:49:10 10° NNE
UNK 4.4 21:39:06 10° NNE 21:45:22 82° ESE 21:50:11 16° S
Coronas F rocket 4.4 21:44:18 10° WSW 21:45:41 13° WNW 21:47:05 10° NW
Meteor 1-27 Rocket 3.6 21:41:37 10° N 21:47:11 69° E 21:49:08 40° SSE
YAOGAN 6 2.4 21:49:06 73° ENE 21:49:06 73° ENE 21:52:34 10° N
Cosmos 1408 2.5 21:49:55 67° ENE 21:49:55 67° ENE 21:53:23 10° NNE
SL-27 R/B 2.3 21:46:17 10° NNW 21:49:57 88° WSW 21:50:06 82° S
Cosmos 2082 Rocket 4.3 21:47:42 10° NNE 21:49:58 12° NE 21:51:28 11° ENE
Atlas Centaur 2 2.0 21:52:10 10° WSW 21:54:40 37° SW 21:54:40 37° SW
COS B Rocket 3.6 21:52:51 10° N 21:57:00 64° W 21:57:56 46° SW
MetOp-A 4.2 21:57:43 37° S 21:59:53 75° WSW 22:05:14 10° NNW
CZ-4 R/B 3.7 21:55:53 10° NNE 22:00:32 62° ESE 22:00:46 61° ESE
Cosmos 962 Rocket 4.4 21:59:16 29° S 22:02:35 89° E 22:08:49 10° N
SL-8 Rocket 4.2 22:01:45 44° SE 22:03:03 51° E 22:09:06 10° NNE
SL-08 RB Rocket 3.9 22:03:06 53° E 22:03:14 53° ENE 22:07:43 10° N
Cosmos 1606 2.8 22:00:29 10° NNW 22:04:24 69° W 22:04:36 67° WSW
Cosmos 1975 Rocket 3.3 22:00:42 10° N 22:04:34 51° ENE 22:04:34 51° ENE
Meteor 2-13 Rocket 4.4 22:03:38 44° SSE 22:05:36 69° E 22:11:43 10° NNE
Cosmos 2154 Rocket 4.3 22:02:30 16° SSW 22:07:35 63° W 22:13:45 10° N
Okean 3 3.4 22:06:44 10° N 22:10:48 76° NE 22:10:48 76° NE
BREEZE-M DEB (TANK) 3.7 22:08:57 10° WNW 22:10:43 36° WSW 22:10:43 36° WSW
NOAA 11 4.1 22:10:39 58° SSE 22:11:45 79° ENE 22:17:15 10° N
USA 245 4.3 22:13:16 34° NNW 22:13:16 34° NNW 22:15:22 10° NNW
Cosmos 1242 Rocket 4.2 22:09:39 10° N 22:11:41 27° NNE 22:11:41 27° NNE
CENTAUR R/B 3.6 22:06:05 10° NW 22:13:48 52° WSW 22:17:54 30° S
H-2A R/B 4.4 22:10:13 10° WSW 22:15:51 61° S 23:14:00 10° ESE
H-2A R/B 4.4 22:10:13 10° WSW 22:15:52 61° S 23:14:00 10° ESE
H-2A R/B 2.5 22:17:21 46° E 22:17:33 46° ENE 22:22:39 10° N
Cosmos 1378 Rocket 3.9 22:17:52 10° NNW 22:22:05 55° W 22:22:15 54° WSW
ERBS 4.1 22:21:28 10° NW 22:23:30 30° WNW 22:23:30 30° WNW
Cosmos 1420 Rocket 3.9 22:26:29 78° SSW 22:26:52 90° WNW 22:32:08 10° NNE
SPOT 1/Viking Rocket 4.0 22:31:45 48° SW 22:32:34 53° W 22:37:39 10° NNW
Cosmos 864 Rocket 4.4 22:35:38 64° E 22:35:40 64° E 22:41:44 10° NNE
Landsat 7 4.0 22:39:28 70° NNW 22:39:28 70° NNW 22:43:41 10° NNW
Cosmos 2366 rocket 3.8 22:40:48 74° SE 22:41:10 77° E 22:47:28 10° N
Meteor 1-14 Rocket 4.1 22:42:37 78° SW 22:42:57 83° W 22:48:38 10° N
Cosmos 489 Rocket 4.3 22:36:55 10° NNW 22:43:09 89° E 22:43:34 79° SSE
Terra 2.4 22:55:45 54° NNW 22:55:45 54° NNW 22:59:26 10° NNW
Cosmos 1140 Rocket 3.8 22:53:19 10° NNW 22:57:38 60° NW 22:57:38 60° NW
ARGOS 4.3 23:01:36 32° WSW 23:02:03 32° W 23:06:49 10° NW
Cosmos 2218 Rocket 4.4 23:02:10 53° WSW 23:03:14 60° W 23:09:35 10° N
DMSP B5D2-2 4.5 23:00:06 10° N 23:04:56 59° WNW 23:04:56 59° WNW
ATLAS 5 CENTAUR R/B 4.1 23:04:50 10° WNW 23:09:26 22° WSW 23:10:03 21° WSW
Cosmos 2278 Rocket 4.0 23:06:57 12° WSW 23:11:21 27° WNW 23:16:08 10° N
Cosmos 1833 Rocket 3.4 23:16:24 10° NNW 23:20:41 47° NNE 23:20:41 47° NNE
Cosmos 1727 Rocket 4.2 23:19:17 10° NNW 23:24:55 64° WNW 23:24:55 64° WNW
Cosmos 2082 Rocket 2.9 23:29:03 10° NNW 23:33:18 52° NNW 23:33:18 52° NNW
